Flag for United Kingdom Weather past 2 weeks in Swansea, Wales, United Kingdom

Now
58 °F

Cool.


Feels Like: 55 °F
Forecast: 44 / 61 °F
Wind: 14 mph from Northwest

Location: Mumbles

Current Time: Sep 5, 2015 at 1:17:57 AM

Latest Report: Sep 4, 2015 at 6:00 PM


Visibility: N/A

Pressure: 30.14 "Hg

Humidity: 72%

Dew point: 49 °F

Location of SwanseaLocation

Historic Weather in Swansea — Graph

°F

Swansea temperature yesterday

Maximum temperature yesterday: 61 °F (at 2:00 PM)
Minimum temperature yesterday: 51 °F (at 4:00 AM)
Average temperature yesterday: 56 °F

Past Weeks' High & Low Weather Summary

 TemperatureHumidityPressure
High74 °F (Aug 22, 5:00 PM)99% (Aug 20, 8:00 PM)30.18 "Hg (Aug 20, 8:00 PM)
Low51 °F (Sep 4, 4:00 AM)58% (Sep 1, 7:00 PM)29.50 "Hg (Aug 26, 4:00 AM)
Average59 °F83%29.91 "Hg
* Reported Aug 20 6:00 PM — Sep 4 6:00 PM, Swansea, Weather by CustomWeather, © 2015

Note: Actual official high and low records may vary slightly from our data, if they occured in-between our weather recording intervals... More about our weather records

Advertising

Swansea weather history for previous 24 hours

 ConditionsComfort  
Time TempWeatherWind HumidityBarometerVisibility
6:00 PM
Fri, Sep 4
58 °FCool.14 mph72%30.14 "HgN/A
4:00 PM60 °FCool.13 mph64%30.14 "HgN/A
3:00 PM61 °FCool.13 mph65%30.15 "HgN/A
2:00 PM61 °FCool.13 mph63%30.15 "HgN/A
1:00 PM61 °FCool.10 mph63%30.14 "HgN/A
12:00 PM59 °FCool.12 mph66%30.14 "HgN/A
11:00 AM58 °FCool.13 mph68%30.14 "HgN/A
10:00 AM59 °FCool.6 mph73%30.14 "HgN/A
9:00 AM55 °FCool.7 mph80%30.13 "HgN/A
8:00 AM53 °FCool.6 mph85%30.12 "HgN/A
7:00 AM53 °FCool.7 mph87%30.11 "HgN/A
6:00 AM52 °FCool.7 mph90%30.11 "HgN/A
5:00 AM51 °FCool.7 mph90%30.11 "HgN/A
4:00 AM51 °FCool.7 mph88%30.11 "HgN/A
3:00 AM51 °FCool.6 mph90%30.10 "HgN/A
2:00 AM52 °FCool.8 mph86%30.11 "HgN/A
1:00 AM53 °FCool.8 mph80%30.12 "HgN/A
Weather by CustomWeather, © 2015

See weather overviewHow to use our weather pages